| time (UTC) | temp C | wind direction | speed KPH | gust KPH | rain 1hr cm | rain 24hr cm | rain mn cm | humidity % | barometer mb |
| 20260903161601 | 31 | 278 | 3.2 | 14.5 | 0.00 | 0.00 | 0.00 | 62 | 1011.2 |
| 20260903160045 | 30 | 266 | 3.2 | 16.1 | 0.00 | 0.00 | 0.00 | 65 | 1011.3 |
| 20260903154543 | 30 | 224 | 4.8 | 12.9 | 0.00 | 0.00 | 0.00 | 70 | 1011.2 |
| 20260903153038 | 28 | 267 | 3.2 | 12.9 | 0.00 | 0.00 | 0.00 | 71 | 1011.3 |
| 20260903151541 | 28 | 227 | 3.2 | 11.3 | 0.00 | 0.00 | 0.00 | 73 | 1011.4 |
| 20260903150034 | 27 | 211 | 4.8 | 17.7 | 0.00 | 0.00 | 0.00 | 75 | 1011.5 |
| 20260903144532 | 27 | 176 | 4.8 | 17.7 | 0.00 | 0.00 | 0.00 | 77 | 1011.6 |
| 20260903143038 | 27 | 214 | 4.8 | 16.1 | 0.00 | 0.00 | 0.00 | 80 | 1011.6 |
| 20260903141530 | 26 | 213 | 4.8 | 12.9 | 0.00 | 0.00 | 0.00 | 82 | 1011.7 |
| 20260903140030 | 26 | 205 | 4.8 | 11.3 | 0.00 | 0.00 | 0.00 | 84 | 1011.8 |
| 20260903134530 | 26 | 245 | 3.2 | 9.7 | 0.00 | 0.00 | 0.00 | 84 | 1011.9 |
| 20260903133029 | 25 | 214 | 4.8 | 14.5 | 0.00 | 0.00 | 0.00 | 84 | 1011.8 |
| 20260903131528 | 25 | 213 | 1.6 | 9.7 | 0.00 | 0.00 | 0.00 | 85 | 1011.7 |
| 20260903130027 | 25 | 171 | 1.6 | 4.8 | 0.00 | 0.00 | 0.00 | 86 | 1011.8 |
| 20260903124546 | 25 | 161 | 1.6 | 6.4 | 0.00 | 0.00 | 0.00 | 86 | 1011.5 |
| 20260903123024 | 25 | 132 | 0.0 | 3.2 | 0.00 | 0.00 | 0.00 | 85 | 1011.4 |
| 20260903121538 | 25 | 197 | 0.0 | 6.4 | 0.00 | 0.00 | 0.00 | 85 | 1011.3 |
| 20260903120023 | 25 | 216 | 3.2 | 8.0 | 0.00 | 0.00 | 0.00 | 85 | 1011.1 |
| 20260903114523 | 25 | 225 | 0.0 | 9.7 | 0.00 | 0.00 | 0.00 | 86 | 1011.2 |
| 20260903113022 | 25 | 157 | 1.6 | 4.8 | 0.00 | 0.00 | 0.00 | 86 | 1011.2 |
| 20260903111520 | 25 | 189 | 0.0 | 4.8 | 0.00 | 0.00 | 0.00 | 87 | 1011.2 |
| 20260903110018 | 24 | 177 | 0.0 | 6.4 | 0.00 | 0.00 | 0.00 | 87 | 1011.1 |
| 20260903104524 | 24 | 184 | 0.0 | 3.2 | 0.00 | 0.00 | 0.00 | 87 | 1011.0 |
| 20260903103017 | 24 | 211 | 0.0 | 6.4 | 0.00 | 0.00 | 0.00 | 86 | 1010.9 |
| 20260903101526 | 24 | 189 | 0.0 | 4.8 | 0.00 | 0.00 | 0.00 | 86 | 1011.0 |
| 20260903100023 | 24 | 205 | 1.6 | 8.0 | 0.00 | 0.00 | 0.00 | 85 | 1010.9 |
| 20260903094614 | 24 | 163 | 1.6 | 0.0 | 0.00 | 0.00 | 0.00 | 85 | 1011.0 |
| 20260903093013 | 24 | 119 | 0.0 | 0.0 | 0.00 | 0.00 | 0.00 | 83 | 1011.0 |
| 20260903091513 | 25 | 108 | 0.0 | 3.2 | 0.00 | 0.00 | 0.00 | 82 | 1011.1 |
| 20260903090009 | 25 | 149 | 0.0 | 4.8 | 0.00 | 0.00 | 0.00 | 82 | 1011.2 |
| 20260903084506 | 25 | 76 | 0.0 | 0.0 | 0.00 | 0.00 | 0.00 | 81 | 1011.1 |
| 20260903083006 | 26 | 70 | 0.0 | 3.2 | 0.00 | 0.00 | 0.00 | 79 | 1011.1 |
| 20260903081504 | 26 | 99 | 0.0 | 8.0 | 0.00 | 0.00 | 0.00 | 78 | 1011.1 |
| 20260903080003 | 26 | 102 | 1.6 | 6.4 | 0.00 | 0.00 | 0.00 | 79 | 1011.1 |
| 20260903074501 | 26 | 93 | 3.2 | 6.4 | 0.00 | 0.00 | 0.00 | 77 | 1011.1 |
| 20260903073114 | 26 | 90 | 3.2 | 6.4 | 0.00 | 0.00 | 0.00 | 76 | 1011.2 |
| 20260903071600 | 26 | 111 | 1.6 | 4.8 | 0.00 | 0.00 | 0.00 | 74 | 1011.1 |
| 20260903070103 | 26 | 92 | 1.6 | 6.4 | 0.00 | 0.00 | 0.00 | 72 | 1011.3 |
| 20260903064557 | 27 | 113 | 0.0 | 4.8 | 0.00 | 0.00 | 0.00 | 68 | 1011.3 |
| 20260903063055 | 27 | 73 | 1.6 | 8.0 | 0.00 | 0.00 | 0.00 | 66 | 1011.3 |
| 20260903061552 | 27 | 100 | 6.4 | 12.9 | 0.00 | 0.00 | 0.00 | 66 | 1011.3 |
| 20260903060047 | 27 | 68 | 4.8 | 8.0 | 0.00 | 0.00 | 0.00 | 66 | 1011.3 |
| 20260903054545 | 28 | 99 | 3.2 | 6.4 | 0.00 | 0.00 | 0.00 | 67 | 1011.2 |
| 20260903053046 | 27 | 88 | 1.6 | 6.4 | 0.00 | 0.00 | 0.00 | 67 | 1011.1 |
| 20260903051541 | 27 | 97 | 1.6 | 4.8 | 0.00 | 0.00 | 0.00 | 64 | 1010.9 |
| 20260903050039 | 27 | 67 | 3.2 | 6.4 | 0.00 | 0.00 | 0.00 | 63 | 1010.8 |
| 20260903044538 | 27 | 90 | 1.6 | 8.0 | 0.00 | 0.00 | 0.00 | 60 | 1010.9 |
| 20260903043046 | 26 | 70 | 1.6 | 4.8 | 0.00 | 0.00 | 0.00 | 61 | 1010.7 |
| 20260903041537 | 27 | 81 | 0.0 | 1.6 | 0.00 | 0.00 | 0.00 | 57 | 1010.7 |
| 20260903040036 | 27 | 68 | 0.0 | 0.0 | 0.00 | 0.00 | 0.00 | 57 | 1010.5 |
| 20260903034535 | 28 | 68 | 0.0 | 3.2 | 0.00 | 0.00 | 0.00 | 53 | 1010.4 |
| 20260903033034 | 28 | 85 | 0.0 | 0.0 | 0.00 | 0.00 | 0.00 | 52 | 1010.3 |
| 20260903031544 | 29 | 85 | 0.0 | 0.0 | 0.00 | 0.00 | 0.00 | 51 | 1010.2 |
| 20260903030033 | 30 | 77 | 0.0 | 3.2 | 0.00 | 0.00 | 0.00 | 50 | 1010.0 |
| 20260903024533 | 30 | 84 | 1.6 | 3.2 | 0.00 | 0.00 | 0.00 | 50 | 1009.8 |
| 20260903023035 | 30 | 78 | 1.6 | 4.8 | 0.00 | 0.00 | 0.00 | 50 | 1009.6 |
| 20260903021532 | 30 | 76 | 1.6 | 4.8 | 0.00 | 0.00 | 0.00 | 49 | 1009.3 |
| 20260903020039 | 31 | 76 | 1.6 | 4.8 | 0.00 | 0.00 | 0.00 | 49 | 1009.1 |
| 20260903014529 | 31 | 97 | 3.2 | 8.0 | 0.00 | 0.00 | 0.00 | 48 | 1009.0 |
| 20260903013029 | 31 | 90 | 3.2 | 6.4 | 0.00 | 0.00 | 0.00 | 47 | 1008.9 |
| 20260903011529 | 32 | 111 | 1.6 | 4.8 | 0.00 | 0.00 | 0.00 | 45 | 1008.7 |
| 20260903010031 | 33 | 135 | 1.6 | 4.8 | 0.00 | 0.00 | 0.00 | 44 | 1008.6 |
| 20260903004529 | 34 | 184 | 0.0 | 4.8 | 0.00 | 0.00 | 0.00 | 42 | 1008.5 |
| 20260903003027 | 35 | 164 | 0.0 | 8.0 | 0.00 | 0.00 | 0.00 | 41 | 1008.5 |
| 20260903001525 | 35 | 184 | 3.2 | 11.3 | 0.00 | 0.00 | 0.00 | 40 | 1008.5 |
| 20260903000032 | 36 | 160 | 3.2 | 8.0 | 0.00 | 0.00 | 0.00 | 38 | 1008.5 |
| 20260902234527 | 36 | 238 | 4.8 | 11.3 | 0.00 | 0.00 | 0.00 | 37 | 1008.7 |
| 20260902233024 | 36 | 217 | 4.8 | 11.3 | 0.00 | 0.00 | 0.00 | 38 | 1008.7 |
| 20260902231525 | 37 | 220 | 4.8 | 12.9 | 0.00 | 0.00 | 0.00 | 37 | 1008.7 |
| 20260902230022 | 37 | 233 | 4.8 | 12.9 | 0.00 | 0.00 | 0.00 | 37 | 1008.7 |
| 20260902224521 | 37 | 211 | 4.8 | 14.5 | 0.00 | 0.00 | 0.00 | 36 | 1008.6 |
| 20260902223037 | 37 | 183 | 3.2 | 12.9 | 0.00 | 0.00 | 0.00 | 38 | 1008.6 |
| 20260902221521 | 37 | 160 | 1.6 | 11.3 | 0.00 | 0.00 | 0.00 | 36 | 1008.8 |
| 20260902220017 | 37 | 173 | 3.2 | 9.7 | 0.00 | 0.00 | 0.00 | 35 | 1008.9 |
| 20260902214516 | 38 | 166 | 1.6 | 8.0 | 0.00 | 0.00 | 0.00 | 33 | 1009.0 |
| 20260902213012 | 37 | 189 | 3.2 | 11.3 | 0.00 | 0.00 | 0.00 | 35 | 1009.2 |
| 20260902211516 | 37 | 255 | 3.2 | 14.5 | 0.00 | 0.00 | 0.00 | 37 | 1009.2 |
| 20260902210008 | 37 | 202 | 8.0 | 12.9 | 0.00 | 0.00 | 0.00 | 36 | 1009.4 |
| 20260902204505 | 37 | 260 | 4.8 | 14.5 | 0.00 | 0.00 | 0.00 | 38 | 1009.8 |
| 20260902203004 | 36 | 161 | 6.4 | 12.9 | 0.00 | 0.00 | 0.00 | 38 | 1010.0 |
| 20260902201502 | 36 | 249 | 3.2 | 9.7 | 0.00 | 0.00 | 0.00 | 40 | 1010.2 |
| 20260902200059 | 36 | 222 | 3.2 | 8.0 | 0.00 | 0.00 | 0.00 | 40 | 1010.6 |
| 20260902194557 | 35 | 38 | 1.6 | 12.9 | 0.00 | 0.00 | 0.00 | 42 | 1010.8 |
| 20260902193055 | 36 | 170 | 4.8 | 9.7 | 0.00 | 0.00 | 0.00 | 40 | 1010.9 |
| 20260902191553 | 35 | 305 | 3.2 | 8.0 | 0.00 | 0.00 | 0.00 | 44 | 1011.2 |
| 20260902190050 | 35 | 78 | 0.0 | 3.2 | 0.00 | 0.00 | 0.00 | 44 | 1011.5 |
| 20260902184548 | 36 | 116 | 1.6 | 9.7 | 0.00 | 0.00 | 0.00 | 42 | 1011.8 |
| 20260902183056 | 35 | 293 | 4.8 | 12.9 | 0.00 | 0.00 | 0.00 | 43 | 1012.0 |
| 20260902181543 | 35 | 229 | 3.2 | 6.4 | 0.00 | 0.00 | 0.00 | 44 | 1012.3 |
| 20260902180044 | 35 | 262 | 3.2 | 14.5 | 0.00 | 0.00 | 0.00 | 44 | 1012.6 |
| 20260902174537 | 34 | 19 | 3.2 | 9.7 | 0.00 | 0.00 | 0.00 | 45 | 1012.7 |
| 20260902173046 | 34 | 310 | 3.2 | 8.0 | 0.00 | 0.00 | 0.00 | 47 | 1012.9 |
| 20260902171530 | 33 | 260 | 4.8 | 9.7 | 0.00 | 0.00 | 0.00 | 50 | 1013.2 |
| 20260902170033 | 33 | 222 | 6.4 | 12.9 | 0.00 | 0.00 | 0.00 | 49 | 1013.4 |
| 20260902164530 | 33 | 274 | 3.2 | 9.7 | 0.00 | 0.00 | 0.00 | 49 | 1013.5 |
| 20260902163022 | 32 | 288 | 6.4 | 12.9 | 0.00 | 0.00 | 0.00 | 51 | 1013.5 |